Weather History for Lago Vista, TX

Change the Weather History Date:

Monday, October 8, 2012

  Actual Average (KATT) Record (KATT)
Temperature  
Mean Temperature 57 °F 74 °F  
Max Temperature 68 °F 84 °F 96 °F (1925)
Min Temperature 46 °F 63 °F 42 °F (1952)
Degree Days  
Heating Degree Days 8 0  
Month to date heating degree days 0  
Since 1 July heating degree days 2  
Cooling Degree Days 0 9  
Month to date cooling degree days 78  
Year to date cooling degree days 2922  
Growing Degree Days 7 (Base 50)    
Moisture  
Dew Point 43 °F    
Average Humidity 63    
Maximum Humidity 77    
Minimum Humidity 46    
Precipitation  
Precipitation 0.00 in 0.13 in 0.86 in (1994)
Month to date precipitation 0.89  
Year to date precipitation 25.97  
Snow  
Snow 0.00 in - - ()
Month to date snowfall  
Since 1 July snowfall  
Since 1 September snowfall  
Snow Depth -    
Sea Level Pressure  
Sea Level Pressure 30.18 in    
Wind  
Wind Speed 5 mph (NE)    
Max Wind Speed 7 mph    
Max Gust Speed -    
Visibility 10 miles    
Events      
T = Trace of Precipitation, MM = Missing Value Source: NWS Daily Summary

Daily Weather History Graph

Daily Weather History Graph

Search for Another Location

Airport:

Trip Planner

Search our weather history database for the weather conditions in past years. The results will help you decide how hot, cold, wet, or windy it might be!

Date:

Astronomy

Oct. 08, 2012 Rise Set
Actual Time 7:29 AM CDT 7:08 PM CDT
Civil Twilight 7:05 AM CDT 7:32 PM CDT
Nautical Twilight 6:37 AM CDT 7:59 PM CDT
Astronomical Twilight 6:10 AM CDT 8:27 PM CDT
Moon 12:37 AM CDT (10/8) 2:33 PM CDT (10/8)
Length of Visible Light 12h 26m
Length of Day
11h 38m
Last Quarter, 46% of the Moon is Illuminated
Oct 8
Last Quarter
Oct 15
New
Oct 21
First Quarter
Oct 29
Full
Nov 6
Last Quarter

Hourly Weather History & Observations

Time (CDT) Temp. Windchill Dew Point Humidity Pressure Visibility Wind Dir Wind Speed Gust Speed Precip Events Conditions
12:15 AM 50.0 °F - 35.6 °F 58% 30.22 in 10.0 mi NNE 6.9 mph - N/A   Overcast
12:35 AM 50.0 °F - 35.6 °F 58% 30.22 in 10.0 mi NNE 5.8 mph - N/A   Overcast
12:55 AM 50.0 °F - 35.6 °F 58% 30.22 in 10.0 mi NNE 5.8 mph - N/A   Overcast
1:15 AM 50.0 °F - 35.6 °F 58% 30.23 in 10.0 mi North 6.9 mph - N/A   Overcast
1:35 AM 48.2 °F - 37.4 °F 66% 30.23 in 10.0 mi NNE 5.8 mph - N/A   Overcast
1:55 AM 48.2 °F - 37.4 °F 66% 30.23 in 10.0 mi Calm Calm - N/A   Overcast
2:15 AM 46.4 °F 43.5 °F 37.4 °F 71% 30.23 in 10.0 mi North 5.8 mph - N/A   Overcast
2:35 AM 46.4 °F 43.5 °F 37.4 °F 71% 30.23 in 10.0 mi NNE 5.8 mph - N/A   Overcast
2:55 AM 46.4 °F 45.2 °F 37.4 °F 71% 30.23 in 10.0 mi North 3.5 mph - N/A   Overcast
3:15 AM 46.4 °F 44.3 °F 37.4 °F 71% 30.22 in 10.0 mi North 4.6 mph - N/A   Overcast
3:35 AM 46.4 °F 45.2 °F 37.4 °F 71% 30.22 in 10.0 mi North 3.5 mph - N/A   Overcast
3:55 AM 46.4 °F 45.2 °F 39.2 °F 76% 30.21 in 10.0 mi North 3.5 mph - N/A   Overcast
4:15 AM 46.4 °F 45.2 °F 39.2 °F 76% 30.21 in 10.0 mi NNE 3.5 mph - N/A   Overcast
4:35 AM 46.4 °F 44.3 °F 37.4 °F 71% 30.21 in 10.0 mi North 4.6 mph - N/A   Overcast
4:55 AM 46.4 °F - 37.4 °F 71% 30.21 in 10.0 mi Calm Calm - N/A   Overcast
5:15 AM 46.4 °F 44.3 °F 39.2 °F 76% 30.21 in 10.0 mi NNE 4.6 mph - N/A   Overcast
5:35 AM 46.4 °F 45.2 °F 39.2 °F 76% 30.21 in 10.0 mi North 3.5 mph - N/A   Overcast
5:55 AM 46.4 °F 45.2 °F 39.2 °F 76% 30.22 in 10.0 mi NNE 3.5 mph - N/A   Overcast
6:15 AM 46.4 °F 44.3 °F 37.4 °F 71% 30.22 in 10.0 mi North 4.6 mph - N/A   Overcast
6:35 AM 48.2 °F - 37.4 °F 66% 30.22 in 10.0 mi North 4.6 mph - N/A   Overcast
6:55 AM 48.2 °F - 39.2 °F 71% 30.23 in 10.0 mi North 4.6 mph - N/A   Overcast
7:15 AM 48.2 °F - 39.2 °F 71% 30.23 in 10.0 mi Calm Calm - N/A   Overcast
7:35 AM 48.2 °F - 39.2 °F 71% 30.23 in 10.0 mi NNE 4.6 mph - N/A   Overcast
7:55 AM 48.2 °F - 39.2 °F 71% 30.24 in 10.0 mi NNE 4.6 mph - N/A   Overcast
8:15 AM 48.2 °F - 39.2 °F 71% 30.25 in 10.0 mi NNE 5.8 mph - N/A   Overcast
8:35 AM 48.2 °F - 39.2 °F 71% 30.25 in 10.0 mi NNE 5.8 mph - N/A   Overcast
8:55 AM 50.0 °F - 39.2 °F 66% 30.25 in 10.0 mi NNE 4.6 mph - N/A   Overcast
9:15 AM 50.0 °F - 39.2 °F 66% 30.25 in 10.0 mi NE 3.5 mph - N/A   Overcast
9:35 AM 50.0 °F - 39.2 °F 66% 30.26 in 10.0 mi North 4.6 mph - N/A   Overcast
9:55 AM 51.8 °F - 39.2 °F 62% 30.26 in 10.0 mi North 6.9 mph - N/A   Overcast
10:15 AM 53.6 °F - 41.0 °F 62% 30.26 in 10.0 mi North 5.8 mph - N/A   Overcast
10:35 AM 53.6 °F - 41.0 °F 62% 30.26 in 10.0 mi NNE 5.8 mph - N/A   Overcast
10:55 AM 53.6 °F - 41.0 °F 62% 30.25 in 10.0 mi NNE 4.6 mph - N/A   Overcast
11:15 AM 55.4 °F - 41.0 °F 58% 30.25 in 10.0 mi NE 3.5 mph - N/A   Overcast
11:35 AM 55.4 °F - 41.0 °F 58% 30.24 in 10.0 mi NE 4.6 mph - N/A   Overcast
11:55 AM 55.4 °F - 41.0 °F 58% 30.23 in 10.0 mi NNE 3.5 mph - N/A   Overcast
12:15 PM 57.2 °F - 42.8 °F 59% 30.23 in 10.0 mi North 3.5 mph - N/A   Overcast
12:35 PM 59.0 °F - 42.8 °F 55% 30.22 in 10.0 mi NNW 3.5 mph - N/A   Overcast
12:55 PM 60.8 °F - 42.8 °F 52% 30.21 in 10.0 mi NE 4.6 mph - N/A   Scattered Clouds
1:35 PM 60.8 °F - 42.8 °F 52% 30.19 in 10.0 mi NNE 4.6 mph - N/A   Clear
1:55 PM 62.6 °F - 44.6 °F 52% 30.18 in 10.0 mi ENE 5.8 mph - N/A   Clear
2:15 PM 62.6 °F - 44.6 °F 52% 30.16 in 10.0 mi ENE 3.5 mph - N/A   Clear
2:35 PM 64.4 °F - 44.6 °F 49% 30.15 in 10.0 mi Calm Calm - N/A   Clear
2:55 PM 66.2 °F - 44.6 °F 46% 30.14 in 10.0 mi NNE 3.5 mph - N/A   Clear
3:15 PM 64.4 °F - 44.6 °F 49% 30.13 in 10.0 mi ENE 3.5 mph - N/A   Clear
3:35 PM 66.2 °F - 44.6 °F 46% 30.12 in 10.0 mi Calm Calm - N/A   Clear
3:55 PM 66.2 °F - 46.4 °F 49% 30.12 in 10.0 mi ENE 3.5 mph - N/A   Clear
4:15 PM 68.0 °F - 46.4 °F 46% 30.11 in 10.0 mi ENE 3.5 mph - N/A   Clear
4:35 PM 68.0 °F - 46.4 °F 46% 30.11 in 10.0 mi Calm Calm - N/A   Clear
4:55 PM 68.0 °F - 46.4 °F 46% 30.11 in 10.0 mi East 5.8 mph - N/A   Clear
5:15 PM 68.0 °F - 46.4 °F 46% 30.10 in 10.0 mi South 3.5 mph - N/A   Clear
5:35 PM 68.0 °F - 48.2 °F 49% 30.10 in 10.0 mi SSE 3.5 mph - N/A   Clear
5:55 PM 66.2 °F - 48.2 °F 52% 30.10 in 10.0 mi SSE 4.6 mph - N/A   Clear
6:15 PM 66.2 °F - 48.2 °F 52% 30.10 in 10.0 mi Calm Calm - N/A   Clear
6:55 PM 62.6 °F - 48.2 °F 59% 30.10 in 10.0 mi SE 3.5 mph - N/A   Clear
7:15 PM 60.8 °F - 48.2 °F 63% 30.10 in 10.0 mi ESE 3.5 mph - N/A   Clear
7:35 PM 60.8 °F - 48.2 °F 63% 30.10 in 10.0 mi ESE 3.5 mph - N/A   Clear
7:55 PM 60.8 °F - 48.2 °F 63% 30.10 in 10.0 mi ESE 3.5 mph - N/A   Clear
8:15 PM 59.0 °F - 48.2 °F 67% 30.10 in 10.0 mi ESE 4.6 mph - N/A   Clear
8:35 PM 59.0 °F - 48.2 °F 67% 30.10 in 10.0 mi ESE 3.5 mph - N/A   Clear
9:15 PM 59.0 °F - 50.0 °F 72% 30.10 in 10.0 mi ESE 4.6 mph - N/A   Clear
9:35 PM 59.0 °F - 50.0 °F 72% 30.11 in 10.0 mi SE 4.6 mph - N/A   Clear
9:55 PM 60.8 °F - 50.0 °F 68% 30.11 in 10.0 mi SSE 4.6 mph - N/A   Clear
10:15 PM 59.0 °F - 50.0 °F 72% 30.10 in 10.0 mi SSE 4.6 mph - N/A   Scattered Clouds
10:55 PM 59.0 °F - 50.0 °F 72% 30.10 in 10.0 mi SSE 3.5 mph - N/A   Clear
11:15 PM 57.2 °F - 50.0 °F 77% 30.10 in 10.0 mi SE 3.5 mph - N/A   Clear
11:35 PM 59.0 °F - 50.0 °F 72% 30.10 in 10.0 mi SSE 3.5 mph - N/A   Clear
11:55 PM 59.0 °F - 50.0 °F 72% 30.09 in 10.0 mi SSE 4.6 mph - N/A   Scattered Clouds